Simultaneous Nadir Overpasses (SNOs) Predictions

Prediction of SNOs between AQUA and METOP-B Satellite Orbit:

Table of predicted SNOs for the next 14.0 days since TLE Epoch: 2/7/2020
Index Date (AQUA) Time (AQUA) Lat,Lon (AQUA) SZA (AQUA ) Date (METOP-B) Time (METOP-B) Lat,Lon (METOP-B) SZA (METOP-B ) Distance(km) Time Diff (sec)
1 02/08/2020 09:13:50 -73.74,-144.08 91.05 02/08/2020 09:12:53 -73.77,-144.05 91.02 2.86 57
2 02/08/2020 10:03:19 73.84, 23.34 89.05 02/08/2020 10:03:31 73.84, 23.45 89.04 3.37 12
3 02/08/2020 10:52:55 -74.35,-170.20 90.41 02/08/2020 10:54:03 -74.34,-167.98 90.53 66.51 68
4 02/11/2020 04:48:08 -73.76, -77.70 91.93 02/11/2020 04:47:17 -73.75, -77.69 91.94 1.95 51
5 02/11/2020 05:37:36 73.82, 89.83 88.12 02/11/2020 05:37:55 73.81, 89.80 88.12 0.85 19
6 02/11/2020 06:27:17 -74.58,-104.31 91.06 02/11/2020 06:28:22 -74.56,-100.99 91.23 98.23 65
7 02/14/2020 00:22:26 -73.79, -11.32 92.84 02/14/2020 00:21:40 -73.77, -11.23 92.85 3.53 46
8 02/14/2020 01:11:54 73.85, 156.19 87.22 02/14/2020 01:12:18 73.84, 156.27 87.20 2.63 24
9 02/16/2020 19:56:42 -73.77, 55.16 93.82 02/16/2020 19:56:03 -73.75, 55.12 93.83 2.62 39
10 02/16/2020 20:46:10 73.83,-137.34 86.24 02/16/2020 20:46:41 73.81,-137.39 86.22 2.90 31
11 02/19/2020 15:30:59 -73.75, 121.62 94.83 02/19/2020 15:30:26 -73.77, 121.58 94.81 2.30 33
12 02/19/2020 16:20:27 73.82, -70.89 85.24 02/19/2020 16:21:04 73.83, -70.94 85.24 1.94 37




NCC Satellite Simultaneous Nadir Overpasses (SNOs) Prediction Service
